Kezdőlap
METAR-TAF:

METAR-TAF

Repülőterek :

Appleton Municipal Airport

Appleton, Minnesota, Amerikai Egyesült Államok

földrajzi szélesség: 45-13-39N, földrajzi hosszúság: 096-00-15W, magasság: 310 m

Jelenlegi meteorológiai megfigyelések

A jelentés 15 perccel ezelõtt készült, 08:11 UTC
Szélcsend
Hőmérséklet -12°C
Páratartalom 85%
Légköri nyomás 1022 hPa
Látótávolság: 16.1 km
Borult 8500 lábon

METAR: KAQP 270811Z AUTO 00000KT 10SM OVC085 M12/M14 A3017 RMK AO2

Idő: 02:26 (08:26 UTC)


TAF: hiányzik

Meteorológiai megfigyelések és előrejelzések több, mint 4000 repülőtéren (METAR és TAF jelentéseket).

A térképen piros és sárga pontok jelzik az elérhető meteorológiai állomásokat.

Mozgassa az egeret a pont fölött, hogy megjelenjen az állomás neve.

Azután kattintson az időjárási megfigyelések és előrejelzések megtekintéséhez.

A térkép megváltoztatása: kattintson a fekete keresztel jelölt zöld gombra ráközelítéshez, a vonallal jelölt zöld gombra távolításhoz, vagy a zöld nyilakra a szomszédos térképek eléréséhez.


METAR-TAF: